Weather in Korzhinskiy

Russia / Komi Republic     60°24′56″N   48°34′31″E
temp.,
°C
wind,
m/s
gust,
m/s
humid.,
%
clouds,
%
prec.,
mm/h
press.,
hPa
HPBL,
m
23 september, thu
thu2300:00+2e39955 0.0 1026213
03:00+1e299810 0.0 1026192
06:00+1e289813 0.0 1026176
09:00+7ese37695 0.0 1025408
12:00+12se46545 0.0 1024912
15:00+10sse3964100 0.0 1023725
18:00+9se41169100 0.0 1022519
21:00+8se31076100 0.0 1022429
24 september, fri
fri2400:00+8se31080100 0.0 1021450
03:00+8se31280100 0.1 1019548
06:00+8se41487100 0.3 1018856
09:00+8se51384100 0.6 10171267
12:00+8se51290100 0.9 1017911
15:00+8se41093100 1.1 1016706
18:00+8se41093100 0.1 1016607
21:00+8se41293100 0.4 1015671
25 september, sat
sat2500:00+7se41195100 2.0 1014729
03:00+7se41196100 3.1 1013673
06:00+7se41097100 1.5 1013628
09:00+7se3997100 3.7 1012593
12:00+8se4996100 0.6 1013647
15:00+7se3794100 2.5 1013870
18:00+7se2797100 0.9 1013479
21:00+7ese1598100 1.3 1012303
26 september, sun
sun2600:00+7ese2698100 0.1 1012294
03:00+6ese2697100 0.1 1013291
06:00+6e2597100 0.0 1013244
09:00+7e2595100 0.0 1014344
12:00+8e2494100 0.1 1015340
15:00+8ene2695100 0.1 1016381
18:00+7e3797100 0.1 1018385
21:00+7ene3797100 0.2 1019311
27 september, mon
mon2700:00+7ene3896100 0.6 1020398
03:00+7e3895100 1.1 1022559
06:00+6ene3794100 0.1 1024684
09:00+6ene3887100 0.1 1026606
12:00+8e466885 0.0 1028829
15:00+9ene355646 0.0 10291094
18:00+4ene247850 0.0 103076
21:00+2ene23825 0.0 103241